Simultaneous Nadir Overpasses (SNOs) Predictions

Prediction of SNOs between FY3D and AQUA Satellite Orbit:

Table of predicted SNOs for the next 14.0 days since TLE Epoch: 10/12/2024
Index Date (FY3D) Time (FY3D) Lat,Lon (FY3D) SZA (FY3D ) Date (AQUA) Time (AQUA) Lat,Lon (AQUA) SZA (AQUA ) Distance(km) Time Diff (sec)
1 10/14/2024 04:08:41 80.92, 80.41 90.71 10/14/2024 04:09:54 81.24, 81.17 90.90 38.41 73
2 10/14/2024 04:58:21 -79.43, -91.03 92.04 10/14/2024 04:58:12 -79.43, -91.07 92.04 1.00 9
3 10/16/2024 15:20:21 79.67, -68.59 89.17 10/16/2024 15:21:30 79.66, -68.53 89.15 1.25 69
4 10/16/2024 16:10:59 -79.44, 100.81 91.13 10/16/2024 16:10:44 -79.44, 100.80 91.13 0.23 15
5 10/19/2024 02:32:56 79.60, 123.93 89.97 10/19/2024 02:33:55 79.60, 123.89 89.96 0.63 59
6 10/19/2024 03:23:34 -79.37, -66.70 90.34 10/19/2024 03:23:09 -79.37, -66.79 90.33 1.83 25
7 10/21/2024 13:45:32 79.61, -44.29 90.86 10/21/2024 13:46:16 79.61, -44.22 90.84 1.35 44
8 10/21/2024 14:36:10 -79.38, 125.10 89.45 10/21/2024 14:35:30 -79.38, 125.11 89.44 0.35 40
9 10/24/2024 00:58:06 79.55, 148.19 91.63 10/24/2024 00:58:31 79.55, 148.22 91.62 0.60 25



Historial Predications of SNOs between FY3D and AQUA
